Weather History for Lemoore NAS, CA

Change the Weather History Date:

Saturday, September 28, 2013

  Actual Average Record
Temperature  
Mean Temperature 67 °F -  
Max Temperature 88 °F 86 °F 102 °F (2010)
Min Temperature 46 °F 54 °F 46 °F (2013)
Cooling Degree Days 2    
Growing Degree Days 17 (Base 50)    
Moisture  
Dew Point 30 °F    
Average Humidity 27    
Maximum Humidity 46    
Minimum Humidity 14    
Precipitation  
Precipitation 0.00 in - - ()
Sea Level Pressure  
Sea Level Pressure 30.05 in    
Wind  
Wind Speed 4 mph (NNW)    
Max Wind Speed 10 mph    
Max Gust Speed -    
Visibility 9 miles    
Events      
Averages and records for this station are not official NWS values.
T = Trace of Precipitation, MM = Missing Value Source: NWS Daily Summary

Daily Weather History Graph

Daily Weather History Graph

Search for Another Location

Airport:

Trip Planner

Search our weather history database for the weather conditions in past years. The results will help you decide how hot, cold, wet, or windy it might be!

Date:

Astronomy

Sep. 28, 2013 Rise Set
Actual Time 6:52 AM PDT 6:47 PM PDT
Civil Twilight 6:27 AM PDT 7:12 PM PDT
Nautical Twilight 5:57 AM PDT 7:42 PM PDT
Astronomical Twilight 5:27 AM PDT 8:12 PM PDT
Moon 12:53 AM PDT (9/28) 3:01 PM PDT (9/28)
Length of Visible Light 12h 45m
Length of Day
11h 54m
Waning Crescent, 35% of the Moon is Illuminated
Sep 28
Waning Crescent
Oct 4
New
Oct 11
First Quarter
Oct 18
Full
Oct 26
Last Quarter

Hourly Weather History & Observations

Time (PDT) Temp. Windchill Dew Point Humidity Pressure Visibility Wind Dir Wind Speed Gust Speed Precip Events Conditions
12:56 AM 54.0 °F - 25.0 °F 33% 30.07 in 7.0 mi West 3.5 mph - N/A   Clear
1:56 AM 53.1 °F - 25.0 °F 34% 30.08 in 8.0 mi WSW 4.6 mph - N/A   Clear
2:56 AM 50.0 °F - 27.0 °F 41% 30.07 in 10.0 mi West 5.8 mph - N/A   Clear
3:56 AM 50.0 °F - 28.9 °F 44% 30.07 in 8.0 mi North 4.6 mph - N/A   Clear
4:56 AM 50.0 °F - 30.0 °F 46% 30.07 in 10.0 mi Calm Calm - N/A   Clear
5:56 AM 46.9 °F - 25.0 °F 42% 30.07 in 10.0 mi SW 3.5 mph - N/A   Clear
6:56 AM 46.0 °F 43.1 °F 23.0 °F 40% 30.08 in 4.0 mi SW 5.8 mph - N/A   Haze
7:56 AM 53.1 °F - 26.1 °F 35% 30.09 in 5.0 mi WSW 4.6 mph - N/A   Haze
8:56 AM 64.0 °F - 30.9 °F 29% 30.10 in 8.0 mi Calm Calm - N/A   Clear
9:56 AM 70.0 °F - 32.0 °F 25% 30.11 in 10.0 mi North 5.8 mph - N/A   Clear
10:56 AM 75.0 °F - 34.0 °F 22% 30.10 in 10.0 mi NNW 3.5 mph - N/A   Clear
11:56 AM 79.0 °F - 35.1 °F 20% 30.09 in 10.0 mi NE 5.8 mph - N/A   Clear
12:56 PM 80.1 °F - 34.0 °F 19% 30.07 in 10.0 mi Calm Calm - N/A   Clear
1:56 PM 84.0 °F - 35.1 °F 17% 30.04 in 10.0 mi NE 4.6 mph - N/A   Clear
2:56 PM 86.0 °F - 34.0 °F 16% 30.02 in 10.0 mi Calm Calm - N/A   Clear
3:56 PM 88.0 °F - 33.1 °F 14% 30.00 in 10.0 mi Variable 4.6 mph - N/A   Clear
4:56 PM 88.0 °F - 32.0 °F 14% 29.98 in 10.0 mi NE 3.5 mph - N/A   Clear
5:56 PM 84.0 °F - 34.0 °F 17% 29.98 in 10.0 mi NNE 6.9 mph - N/A   Clear
6:56 PM 77.0 °F - 34.0 °F 21% 29.98 in 10.0 mi NE 4.6 mph - N/A   Clear
7:56 PM 73.0 °F - 35.1 °F 25% 30.00 in 10.0 mi NNE 3.5 mph - N/A   Clear
8:56 PM 68.0 °F - 33.1 °F 27% 30.03 in 10.0 mi North 4.6 mph - N/A   Clear
9:56 PM 66.0 °F - 27.0 °F 23% 30.03 in 6.0 mi Calm Calm - N/A   Haze
10:56 PM 66.0 °F - 28.9 °F 25% 30.05 in 8.0 mi West 10.4 mph - N/A   Clear
11:56 PM 60.1 °F - 28.9 °F 31% 30.05 in 10.0 mi West 3.5 mph - N/A   Clear